Terminal Aerodrome Forecast
Issued by NWS Wilmington, OH

Current Version | Previous Version | Text Only | Print | Product List | Glossary Off
Versions: 1 2 3 4 5 6 7 8 9 10 11 12 13 14 15 16 17 18 19 20

000
FTUS41 KILN 180700 AAA
TAFDAY
TAF AMD
KDAY 180734Z 1808/1906 07004KT 4SM BR SCT050
     FM181000 06004KT 2SM BR OVC025
     FM181300 05005KT 4SM BR OVC015
     FM181600 04006KT 6SM HZ OVC022
     FM181800 03006KT P6SM VCSH BKN040
     FM182100 VRB04KT P6SM BKN100
     FM190400 16005KT P6SM BKN250=

USA.gov is the U.S. government's official web portal to all federal, state and local government web resources and services.